Terug naar catalogus

BLOCK DM-SL R/B

ActiefHEO
NORAD 28900·ROCKET BODY· XX

Gelanceerd Nov 8, 2005 vanaf Sea Launch Platform

Loading…

Volgende Passages (komende 24 uur)

TLE

VersSource: Space-Track

Epoch: Sep 14, 2026, 17:44 UTC

1 28900U 05044B   26257.73918722  .00005793  00000-0  14557-2 0  9991
2 28900   2.9488  55.4434 6957596 149.5420 282.6029  2.69621181186975

Volg BLOCK DM-SL R/B in realtime met AllMySat

Download on the App Store